Disclaimer

Please do not use the information listed here in-flight or in-navigation, as they are not provided to us by the airports but are provided by volunteers, so they might be outdated.

Search


Regions


Airport information page

No radio frequency information is available.

Airport informations:
Latitude: 34° 26' 49.63" N
Longitude: 108° 45' 05.73" E
Elevation: 1572 feet - 479 meters
Operating hours: Remarks
Operating agency: Civil government, landing fees and diplomatic clearance may be required
Timezone: UTC+8
Fuel: Jet fuel avaiable but type is unknown.

Runway information:
05/23 - 9842 x 148 feet< - >3000 x 45 meters

Recent METARs:
ZLXY 221900Z 00000MPS 4000 BR NSC M10/M13 Q1022 NOSIG
ZLXY 222000Z VRB01MPS 4000 BR NSC M09/M12 Q1022 NOSIG
ZLXY 222000Z VRB01MPS 4000 BR NSC M09/M12 Q1022 NOSIG

Airport on the map: